Weather History for Acapulco, Mexico

Change the Weather History Date:

Tuesday, January 7, 2014

  Actual Average Record
Temperature  
Mean Temperature 82 °F -  
Max Temperature 93 °F 88 °F 93 °F (2014)
Min Temperature 72 °F 70 °F 69 °F (1998)
Cooling Degree Days 18    
Growing Degree Days 32 (Base 50)    
Moisture  
Dew Point 70 °F    
Average Humidity 71    
Maximum Humidity 94    
Minimum Humidity 35    
Precipitation  
Precipitation 0.00 in 0.01 in - ()
Sea Level Pressure  
Sea Level Pressure 29.96 in    
Wind  
Wind Speed 4 mph ()    
Max Wind Speed 11 mph    
Max Gust Speed -    
Visibility 8.4 miles    
Events      
Averages and records for this station are not official NWS values.
T = Trace of Precipitation, MM = Missing Value Source: Averaged Metar Reports

Daily Weather History Graph

Daily Weather History Graph

Search for Another Location

Airport:

Trip Planner

Search our weather history database for the weather conditions in past years. The results will help you decide how hot, cold, wet, or windy it might be!

Date:

Astronomy

Jan. 07, 2014 Rise Set
Actual Time 7:09 AM CST 6:20 PM CST
Civil Twilight 6:46 AM CST 6:44 PM CST
Nautical Twilight 6:19 AM CST 7:11 PM CST
Astronomical Twilight 5:53 AM CST 7:37 PM CST
Moon 12:05 PM CST (1/7) No Moon Set
Length of Visible Light 11h 57m
Length of Day
11h 11m
Waxing Crescent, 46% of the Moon is Illuminated
Jan 7
Waxing Crescent
Jan 7
First Quarter
Jan 15
Full
Jan 23
Last Quarter
Jan 30
New

Hourly Weather History & Observations

Time (CST) Temp. Heat Index Dew Point Humidity Pressure Visibility Wind Dir Wind Speed Gust Speed Precip Events Conditions
12:45 AM 75.2 °F - 71.6 °F 89% 29.96 in 8.0 mi NNE 4.6 mph - N/A   Clear
1:45 AM 75.2 °F - 71.6 °F 89% 29.97 in 8.0 mi Calm Calm - N/A   Clear
2:45 AM 75.2 °F - 71.6 °F 89% 29.96 in 8.0 mi NE 4.6 mph - N/A   Clear
3:45 AM 77.0 °F - 73.4 °F 89% 29.96 in 8.0 mi Calm Calm - N/A   Clear
4:45 AM 77.0 °F - 73.4 °F 89% 29.96 in 8.0 mi NNE 4.6 mph - N/A   Clear
5:45 AM 77.0 °F - 73.4 °F 89% 29.97 in 8.0 mi Calm Calm - N/A   Clear
6:45 AM 73.4 °F - 71.6 °F 94% 29.96 in 8.0 mi NNE 4.6 mph - N/A   Scattered Clouds
7:43 AM 75.2 °F - 69.8 °F 83% 29.98 in 8.0 mi North 8.1 mph - N/A   Clear
8:44 AM 78.8 °F - 68.0 °F 69% 29.99 in 8.0 mi North 6.9 mph - N/A   Clear
8:50 AM 79 °F - 71 °F 69% 30.01 in 12 mi North 2.2 mph - -   Clear
9:43 AM 82.4 °F 83.4 °F 62.6 °F 51% 30.00 in 8.0 mi North 8.1 mph - N/A   Scattered Clouds
10:42 AM 86.0 °F 86.1 °F 60.8 °F 43% 30.00 in 8.0 mi NNE 6.9 mph - N/A   Scattered Clouds
11:45 AM 91 °F - 67 °F 35% 29.99 in 12 mi NNE 6.7 mph - -   Partly Cloudy
11:45 AM 87.8 °F 87.1 °F 59.0 °F 38% 29.99 in 10.0 mi North 4.6 mph - N/A   Mostly Cloudy
12:44 PM 82.4 °F 85.4 °F 68.0 °F 62% 29.95 in 10.0 mi SSW 9.2 mph - N/A   Mostly Cloudy
1:41 PM 84.2 °F 88.4 °F 69.8 °F 62% 29.92 in 10.0 mi SW 6.9 mph - N/A   Scattered Clouds
2:42 PM 84.2 °F 88.4 °F 69.8 °F 62% 29.90 in 8.0 mi SSW 5.8 mph - N/A   Partly Cloudy
2:50 PM 87 °F - 71 °F 51% 29.90 in 12 mi WSW 11.2 mph - -   Scattered Clouds
3:45 PM 86.0 °F 89.4 °F 68.0 °F 55% 29.90 in 8.0 mi SSW 10.4 mph - N/A   Partly Cloudy
4:45 PM 84.2 °F 89.6 °F 71.6 °F 66% 29.90 in 8.0 mi South 4.6 mph - N/A   Clear
5:45 PM 84 °F - 72 °F 59% 29.92 in 12 mi SW 2.2 mph - -   Scattered Clouds
5:45 PM 84.2 °F 89.6 °F 71.6 °F 66% 29.93 in 8.0 mi SW 4.6 mph - N/A   Clear
6:42 PM 84.2 °F 89.6 °F 71.6 °F 66% 29.92 in 7.0 mi WSW 3.5 mph - N/A   Partly Cloudy
7:42 PM 80.6 °F 84.6 °F 71.6 °F 74% 29.95 in 7.0 mi West 3.5 mph - N/A   Partly Cloudy
8:42 PM 80.6 °F 84.6 °F 71.6 °F 74% 29.98 in 7.0 mi West 3.5 mph - N/A   Scattered Clouds
8:50 PM 79 °F - 72 °F 74% 29.98 in 6 mi West 2.2 mph - -   Clear
9:42 PM 78.8 °F - 71.6 °F 78% 29.99 in 7.0 mi Calm Calm - N/A   Scattered Clouds
10:42 PM 77.0 °F - 73.4 °F 89% 29.99 in 7.0 mi Calm Calm - N/A   Scattered Clouds
11:45 PM 77.0 °F - 71.6 °F 83% 29.99 in 7.0 mi North 3.5 mph - N/A   Scattered Clouds
11:50 PM 77 °F - 73 °F 83% 29.99 in 6 mi NNE 2.2 mph - -   Scattered Clouds